User: anonymous   Login
Location: *
(43.0833°N, 13.0500°E)
Time: 02:54:08
(UTC+00:00)
Language:

NOSS 2-3 (D) - Orbit

View from above orbital plane
View from above orbital plane
View from above satellite
View from above satellite

Ground track
Ground track

The orbit data is extracted from the following two-line orbital elements,

1 23862U 96029D   20016.20444563 0.00000000  00000-0  00000-0 0    07
2 23862  63.3371 148.2091 0694958  20.9934 339.0066 13.40875604    04
Epoch (UTC): 16 January 2020 04:54:24
Eccentricity: 0.0694958
inclination: 63.3371°
perigee height: 586 km
apogee height: 1626 km
right ascension of ascending node: 148.2091°
argument of perigee: 20.9934°
revolutions per day: 13.40875604
mean anomaly at epoch: 339.0066°
orbit number at epoch: 0

The dashed part of the orbit path shows where the satellite is in the earth's shadow,  

DLR